SWA2342 KLAX-KPHX

Flight info

Callsign SWA2342
Flight time 1h 2m
Altitude 31000
Route DOTSS2 CNERY BLH HYDRR1
Aircraft B737/M-SADE2E3GIJ4RWZ/LB1D1

Departure

Time 2026-05-04 15:07
Airport Los Angeles International Airport (KLAX)

Arrival

Time 2026-05-04 16:10
Airport Phoenix Sky Harbor International Airport (KPHX)
Time Latitude Longitude Altitude Speed Heading
2026-05-04 14:44 33.94685 -118.40182 92 ft 0 kts 83°
2026-05-04 14:59 33.94681 -118.40227 93 ft 3 kts 82°
2026-05-04 15:00 33.94675 -118.40248 90 ft 4 kts
2026-05-04 15:00 33.94650 -118.40246 92 ft 3 kts 353°
2026-05-04 15:00 33.94648 -118.40245 92 ft 0 kts 353°
2026-05-04 15:03 33.94648 -118.40246 92 ft 1 kts 353°
2026-05-04 15:04 33.94690 -118.40252 92 ft 8 kts 352°
2026-05-04 15:04 33.94746 -118.40261 93 ft 8 kts 353°
2026-05-04 15:04 33.94801 -118.40270 92 ft 8 kts 345°
2026-05-04 15:04 33.94853 -118.40287 93 ft 8 kts 356°
2026-05-04 15:05 33.94896 -118.40250 94 ft 9 kts 68°
2026-05-04 15:05 33.94906 -118.40180 94 ft 8 kts 85°
2026-05-04 15:05 33.94914 -118.40099 93 ft 12 kts 82°
2026-05-04 15:05 33.94927 -118.39981 92 ft 16 kts 81°
2026-05-04 15:06 33.94967 -118.39910 94 ft 9 kts
2026-05-04 15:06 33.95029 -118.39923 92 ft 9 kts 325°
2026-05-04 15:06 33.95040 -118.39974 92 ft 2 kts 262°
2026-05-04 15:07 33.94920 -118.41108 99 ft 145 kts 262°
2026-05-04 15:07 33.94766 -118.42475 414 ft 184 kts 262°
2026-05-04 15:07 33.94556 -118.44122 949 ft 208 kts 261°
2026-05-04 15:07 33.94308 -118.45895 1711 ft 212 kts 261°
2026-05-04 15:08 33.94191 -118.47653 2353 ft 221 kts 269°
2026-05-04 15:08 33.94171 -118.49554 2919 ft 232 kts 269°
2026-05-04 15:08 33.94152 -118.51554 3425 ft 248 kts 267°
2026-05-04 15:08 33.94016 -118.53677 4136 ft 258 kts 265°
2026-05-04 15:09 33.93844 -118.55848 5185 ft 259 kts 265°
2026-05-04 15:09 33.93673 -118.58012 6290 ft 261 kts 265°
2026-05-04 15:09 33.93483 -118.60195 7316 ft 266 kts 260°
2026-05-04 15:10 33.91251 -118.63674 9474 ft 279 kts 206°
2026-05-04 15:10 33.89345 -118.64176 10569 ft 288 kts 184°
2026-05-04 15:10 33.84979 -118.63848 11595 ft 339 kts 173°
2026-05-04 15:11 33.82741 -118.62774 12570 ft 353 kts 154°
2026-05-04 15:11 33.80679 -118.61130 13630 ft 358 kts 151°
2026-05-04 15:11 33.78621 -118.59391 14582 ft 364 kts 151°
2026-05-04 15:11 33.76532 -118.57636 15570 ft 369 kts 152°
2026-05-04 15:12 33.74400 -118.55880 16579 ft 372 kts 153°
2026-05-04 15:12 33.72243 -118.54126 17528 ft 376 kts 154°
2026-05-04 15:12 33.70190 -118.52081 18392 ft 397 kts 139°
2026-05-04 15:12 33.68741 -118.49200 19224 ft 421 kts 119°
2026-05-04 15:13 33.67739 -118.45813 20065 ft 430 kts 115°
2026-05-04 15:13 33.66808 -118.42410 20768 ft 437 kts 116°
2026-05-04 15:13 33.65821 -118.38920 21499 ft 442 kts 117°
2026-05-04 15:13 33.64811 -118.35421 22251 ft 448 kts 115°
2026-05-04 15:14 33.64268 -118.31641 22867 ft 471 kts 98°
2026-05-04 15:14 33.64255 -118.27677 23532 ft 478 kts 95°
2026-05-04 15:14 33.64318 -118.23649 24130 ft 485 kts 95°
2026-05-04 15:14 33.64389 -118.19571 24693 ft 492 kts 95°
2026-05-04 15:15 33.64439 -118.15456 25303 ft 495 kts 96°
2026-05-04 15:15 33.64464 -118.11299 25896 ft 499 kts 96°
2026-05-04 15:15 33.64470 -118.07114 26435 ft 503 kts 97°
2026-05-04 15:16 33.64454 -117.98649 27446 ft 512 kts 97°
2026-05-04 15:16 33.64443 -117.94408 27936 ft 515 kts 97°
2026-05-04 15:16 33.64426 -117.85735 28861 ft 523 kts 98°
2026-05-04 15:17 33.64411 -117.81358 29283 ft 526 kts 99°
2026-05-04 15:17 33.63006 -117.72970 30203 ft 506 kts 117°
2026-05-04 15:17 33.62309 -117.70302 30569 ft 505 kts 118°
2026-05-04 15:18 33.61244 -117.66283 31017 ft 508 kts 118°
2026-05-04 15:18 33.60174 -117.62211 31036 ft 514 kts 117°
2026-05-04 15:19 33.57095 -117.49927 31059 ft 512 kts 116°
2026-05-04 15:19 33.54035 -117.37579 31070 ft 522 kts 116°
2026-05-04 15:20 33.51944 -117.29199 31074 ft 534 kts 116°
2026-05-04 15:20 33.50214 -117.20422 31049 ft 558 kts 100°
2026-05-04 15:21 33.50133 -117.11073 31072 ft 562 kts 96°
2026-05-04 15:22 33.50135 -116.97003 31070 ft 561 kts 97°
2026-05-04 15:22 33.49928 -116.83033 31053 ft 562 kts 98°
2026-05-04 15:23 33.49766 -116.73682 31039 ft 561 kts 98°
2026-05-04 15:23 33.49608 -116.64333 31020 ft 561 kts 98°
2026-05-04 15:24 33.49276 -116.45623 30995 ft 562 kts 98°
2026-05-04 15:25 33.49114 -116.36267 30988 ft 562 kts 97°
2026-05-04 15:26 33.48916 -116.22351 30972 ft 559 kts 97°
2026-05-04 15:26 33.48689 -116.08352 30961 ft 560 kts 97°
2026-05-04 15:27 33.50968 -115.94502 30961 ft 577 kts 71°
2026-05-04 15:28 33.55187 -115.80954 30958 ft 578 kts 73°
2026-05-04 15:29 33.59139 -115.67343 30962 ft 577 kts 73°
2026-05-04 15:30 33.61761 -115.48838 30971 ft 559 kts 99°
2026-05-04 15:30 33.61209 -115.34809 30943 ft 561 kts 98°
2026-05-04 15:31 33.60826 -115.20750 30963 ft 562 kts 97°
2026-05-04 15:32 33.60215 -114.97278 30947 ft 567 kts 97°
2026-05-04 15:34 33.59358 -114.73661 30932 ft 562 kts 105°
2026-05-04 15:34 33.56657 -114.60118 30941 ft 555 kts 112°
2026-05-04 15:35 33.53850 -114.46692 30298 ft 555 kts 110°
2026-05-04 15:35 33.52975 -114.42212 29622 ft 545 kts 109°
2026-05-04 15:36 33.51304 -114.33567 28222 ft 526 kts 110°
2026-05-04 15:36 33.50488 -114.29385 27577 ft 516 kts 110°
2026-05-04 15:36 33.49658 -114.25176 26888 ft 507 kts 110°
2026-05-04 15:37 33.48847 -114.21094 26223 ft 497 kts 110°
2026-05-04 15:37 33.48078 -114.17212 25564 ft 478 kts 110°
2026-05-04 15:37 33.47322 -114.13401 25174 ft 456 kts 110°
2026-05-04 15:37 33.46614 -114.09812 24992 ft 431 kts 111°
2026-05-04 15:38 33.45931 -114.06390 24791 ft 415 kts 111°
2026-05-04 15:38 33.45252 -114.03042 24560 ft 416 kts 111°
2026-05-04 15:38 33.44566 -113.99669 24324 ft 416 kts 111°
2026-05-04 15:38 33.43886 -113.96296 24079 ft 417 kts 111°
2026-05-04 15:39 33.43209 -113.92924 23817 ft 415 kts 111°
2026-05-04 15:39 33.42532 -113.89560 23525 ft 416 kts 111°
2026-05-04 15:39 33.41191 -113.82886 22988 ft 409 kts 110°
2026-05-04 15:40 33.40529 -113.79586 22716 ft 405 kts 110°
2026-05-04 15:40 33.39873 -113.76325 22441 ft 401 kts 110°
2026-05-04 15:40 33.39222 -113.73097 22175 ft 397 kts 110°
2026-05-04 15:40 33.38574 -113.69892 21924 ft 394 kts 110°
2026-05-04 15:41 33.37929 -113.66713 21658 ft 392 kts 110°
2026-05-04 15:41 33.37290 -113.63564 21405 ft 389 kts 110°
2026-05-04 15:41 33.36649 -113.60421 21163 ft 389 kts 110°
2026-05-04 15:41 33.36006 -113.57266 20890 ft 391 kts 110°
2026-05-04 15:42 33.35367 -113.54131 20637 ft 393 kts 110°
2026-05-04 15:42 33.34724 -113.50983 20383 ft 392 kts 109°
2026-05-04 15:42 33.34078 -113.47815 20116 ft 392 kts 109°
2026-05-04 15:42 33.33443 -113.44644 19863 ft 392 kts 108°
2026-05-04 15:43 33.32878 -113.41448 19611 ft 392 kts 106°
2026-05-04 15:43 33.32344 -113.38258 19327 ft 390 kts 106°
2026-05-04 15:43 33.31818 -113.35097 19063 ft 385 kts 106°
2026-05-04 15:43 33.31290 -113.31972 18816 ft 380 kts 106°
2026-05-04 15:44 33.30759 -113.28890 18572 ft 377 kts 106°
2026-05-04 15:44 33.30229 -113.25837 18323 ft 374 kts 106°
2026-05-04 15:44 33.29704 -113.22826 18078 ft 372 kts 106°
2026-05-04 15:44 33.29235 -113.19797 17835 ft 370 kts 103°
2026-05-04 15:45 33.28825 -113.16833 17596 ft 368 kts 103°
2026-05-04 15:45 33.28410 -113.13809 17353 ft 366 kts 104°
2026-05-04 15:45 33.27986 -113.10815 17114 ft 364 kts 104°
2026-05-04 15:45 33.27559 -113.07834 16869 ft 362 kts 103°
2026-05-04 15:46 33.27330 -113.04835 16627 ft 365 kts 93°
2026-05-04 15:46 33.27395 -113.01808 16395 ft 364 kts 90°
2026-05-04 15:46 33.27535 -112.98791 16150 ft 363 kts 89°
2026-05-04 15:46 33.27667 -112.95824 15910 ft 362 kts 90°
2026-05-04 15:47 33.27776 -112.92833 15679 ft 360 kts 90°
2026-05-04 15:47 33.27864 -112.89849 15441 ft 359 kts 91°
2026-05-04 15:47 33.27939 -112.86868 15204 ft 357 kts 91°
2026-05-04 15:47 33.28011 -112.83910 14971 ft 356 kts 91°
2026-05-04 15:48 33.28109 -112.80969 14731 ft 355 kts 88°
2026-05-04 15:48 33.28346 -112.78030 14490 ft 354 kts 86°
2026-05-04 15:48 33.28941 -112.72200 14035 ft 352 kts 85°
2026-05-04 15:49 33.29231 -112.69306 13795 ft 350 kts 86°
2026-05-04 15:49 33.29512 -112.66475 13565 ft 345 kts 86°
2026-05-04 15:49 33.29786 -112.63658 13312 ft 331 kts 86°
2026-05-04 15:49 33.30041 -112.60999 13082 ft 314 kts 86°
2026-05-04 15:50 33.30278 -112.58495 12884 ft 300 kts 87°
2026-05-04 15:50 33.30504 -112.56063 12690 ft 290 kts 87°
2026-05-04 15:50 33.30723 -112.53687 12505 ft 284 kts 87°
2026-05-04 15:50 33.30938 -112.51346 12338 ft 284 kts 87°
2026-05-04 15:51 33.31153 -112.48990 12180 ft 286 kts 88°
2026-05-04 15:51 33.31370 -112.46617 11978 ft 288 kts 88°
2026-05-04 15:51 33.31588 -112.44237 11787 ft 287 kts 87°
2026-05-04 15:51 33.31803 -112.41914 11591 ft 285 kts 87°
2026-05-04 15:52 33.32020 -112.39542 11401 ft 283 kts 87°
2026-05-04 15:52 33.32229 -112.37243 11210 ft 280 kts 87°
2026-05-04 15:52 33.32440 -112.34934 11028 ft 281 kts 87°
2026-05-04 15:52 33.32649 -112.32607 10858 ft 282 kts 87°
2026-05-04 15:53 33.32862 -112.30295 10647 ft 276 kts 87°
2026-05-04 15:53 33.33066 -112.28071 10454 ft 269 kts 87°
2026-05-04 15:53 33.33264 -112.25904 10285 ft 267 kts 87°
2026-05-04 15:53 33.33459 -112.23759 10122 ft 267 kts 87°
2026-05-04 15:54 33.33657 -112.21566 10008 ft 266 kts 87°
2026-05-04 15:54 33.33857 -112.19343 9970 ft 266 kts 87°
2026-05-04 15:54 33.34054 -112.17174 9967 ft 265 kts 87°
2026-05-04 15:54 33.34251 -112.14983 9966 ft 265 kts 87°
2026-05-04 15:55 33.34448 -112.12783 9952 ft 266 kts 87°
2026-05-04 15:55 33.34645 -112.10583 9955 ft 266 kts 87°
2026-05-04 15:55 33.34797 -112.08389 9937 ft 265 kts 93°
2026-05-04 15:55 33.34780 -112.06201 9940 ft 263 kts 95°
2026-05-04 15:56 33.34730 -112.04024 9964 ft 263 kts 95°
2026-05-04 15:56 33.34684 -112.01834 9951 ft 264 kts 95°
2026-05-04 15:56 33.34646 -111.99637 9949 ft 264 kts 95°
2026-05-04 15:56 33.34614 -111.97439 9942 ft 264 kts 95°
2026-05-04 15:57 33.34586 -111.95243 9950 ft 264 kts 95°
2026-05-04 15:57 33.34552 -111.93046 9956 ft 264 kts 95°
2026-05-04 15:57 33.34494 -111.90861 9940 ft 261 kts 96°
2026-05-04 15:57 33.34427 -111.88710 9723 ft 258 kts 96°
2026-05-04 15:58 33.34358 -111.86560 9396 ft 259 kts 96°
2026-05-04 15:58 33.34290 -111.84412 9135 ft 256 kts 95°
2026-05-04 15:58 33.34228 -111.82289 8883 ft 253 kts 96°
2026-05-04 15:58 33.34167 -111.80193 8609 ft 252 kts 95°
2026-05-04 15:59 33.34135 -111.78810 8425 ft 251 kts 95°
2026-05-04 15:59 33.34095 -111.76727 8151 ft 249 kts 95°
2026-05-04 15:59 33.34056 -111.74667 7876 ft 248 kts 94°
2026-05-04 15:59 33.34026 -111.72617 7587 ft 247 kts 94°
2026-05-04 16:00 33.34003 -111.70607 7313 ft 245 kts 94°
2026-05-04 16:00 33.33974 -111.68573 7097 ft 244 kts 94°
2026-05-04 16:00 33.33939 -111.66556 7052 ft 246 kts 94°
2026-05-04 16:00 33.34119 -111.64485 6603 ft 258 kts 71°
2026-05-04 16:01 33.35136 -111.62693 6193 ft 262 kts 40°
2026-05-04 16:01 33.36728 -111.61717 5790 ft 263 kts 14°
2026-05-04 16:01 33.38524 -111.61273 5388 ft 264 kts
2026-05-04 16:01 33.40370 -111.60895 5079 ft 262 kts
2026-05-04 16:02 33.42096 -111.61121 5025 ft 243 kts 331°
2026-05-04 16:02 33.43242 -111.62425 5019 ft 220 kts 291°
2026-05-04 16:02 33.43779 -111.65653 5020 ft 186 kts 275°
2026-05-04 16:03 33.43948 -111.67167 5033 ft 180 kts 272°
2026-05-04 16:03 33.44036 -111.68647 5033 ft 179 kts 269°
2026-05-04 16:03 33.44072 -111.70134 5023 ft 178 kts 268°
2026-05-04 16:03 33.44084 -111.71610 5017 ft 177 kts 267°
2026-05-04 16:04 33.44089 -111.73090 5021 ft 177 kts 267°
2026-05-04 16:04 33.44086 -111.76107 4854 ft 185 kts 267°
2026-05-04 16:04 33.44086 -111.77638 4624 ft 183 kts 267°
2026-05-04 16:05 33.44084 -111.79147 4385 ft 179 kts 267°
2026-05-04 16:05 33.44083 -111.80636 4151 ft 178 kts 267°
2026-05-04 16:05 33.44081 -111.83585 3673 ft 172 kts 267°
2026-05-04 16:06 33.44081 -111.84964 3446 ft 158 kts 267°
2026-05-04 16:06 33.44079 -111.88056 2974 ft 133 kts 266°
2026-05-04 16:07 33.44078 -111.89545 2738 ft 134 kts 265°
2026-05-04 16:07 33.44079 -111.92811 2210 ft 130 kts 268°
2026-05-04 16:08 33.44075 -111.93897 2017 ft 129 kts 268°
2026-05-04 16:08 33.44083 -111.97149 1487 ft 129 kts 268°
2026-05-04 16:09 33.44083 -111.99369 1188 ft 137 kts 270°
2026-05-04 16:09 33.44084 -112.01158 1121 ft 58 kts 270°
2026-05-04 16:10 33.44073 -112.01648 1126 ft 14 kts 245°
2026-05-04 16:11 33.43976 -112.01463 1124 ft 12 kts 89°
2026-05-04 16:11 33.43976 -112.01384 1115 ft 0 kts 90°
2026-05-04 16:13 33.43976 -112.01366 1118 ft 7 kts 91°
2026-05-04 16:13 33.43974 -112.01214 1124 ft 10 kts 90°
2026-05-04 16:14 33.43974 -112.01031 1119 ft 11 kts 90°
2026-05-04 16:14 33.43974 -112.00846 1120 ft 11 kts 90°
2026-05-04 16:15 33.43974 -112.00579 1123 ft 12 kts 90°
2026-05-04 16:16 33.43893 -112.00467 1116 ft 11 kts 180°
2026-05-04 16:16 33.43668 -112.00468 1119 ft 10 kts 180°
2026-05-04 16:17 33.43531 -112.00468 1119 ft 10 kts 180°
2026-05-04 16:18 33.43336 -112.00468 1116 ft 8 kts 180°
2026-05-04 16:18 33.43287 -112.00445 1123 ft 8 kts 123°
2026-05-04 16:19 33.43309 -112.00310 1121 ft 2 kts 34°
2026-05-04 16:19 33.43335 -112.00283 1123 ft 3 kts 42°
2026-05-04 16:20 33.43356 -112.00259 1114 ft 0 kts 45°
2026-05-04 16:20 33.43361 -112.00253 1121 ft 0 kts 46°